Weather History for Block Island, RI

Change the Weather History Date:

Monday, March 3, 2014

  Actual Average Record
Temperature  
Mean Temperature 26 °F -  
Max Temperature 33 °F 40 °F 56 °F (1991)
Min Temperature 19 °F 29 °F 10 °F (1962)
Degree Days  
Heating Degree Days 39    
Moisture  
Dew Point 7 °F    
Average Humidity 51    
Maximum Humidity 80    
Minimum Humidity 36    
Precipitation  
Precipitation 0.00 in - - ()
Sea Level Pressure  
Sea Level Pressure 30.10 in    
Wind  
Wind Speed 10 mph (North)    
Max Wind Speed 16 mph    
Max Gust Speed 24 mph    
Visibility 8 miles    
Events      
Averages and records for this station are not official NWS values.
T = Trace of Precipitation, MM = Missing Value Source: NWS Daily Summary

Daily Weather History Graph

Daily Weather History Graph

Search for Another Location

Airport:

Trip Planner

Search our weather history database for the weather conditions in past years. The results will help you decide how hot, cold, wet, or windy it might be!

Date:

Astronomy

Mar. 03, 2014 Rise Set
Actual Time 6:17 AM EST 5:39 PM EST
Civil Twilight 5:49 AM EST 6:07 PM EST
Nautical Twilight 5:18 AM EST 6:39 PM EST
Astronomical Twilight 4:46 AM EST 7:11 PM EST
Moon 7:22 AM EST (3/3) 8:41 PM EST (3/3)
Length of Visible Light 12h 17m
Length of Day
11h 21m
Waxing Crescent, 8% of the Moon is Illuminated
Mar 3
Waxing Crescent
Mar 8
First Quarter
Mar 16
Full
Mar 23
Last Quarter
Mar 30
New

Hourly Weather History & Observations

Time (EST) Temp. Windchill Dew Point Humidity Pressure Visibility Wind Dir Wind Speed Gust Speed Precip Events Conditions
12:15 AM 33.8 °F 27.0 °F 15.8 °F 48% 29.96 in 10.0 mi NNW 8.1 mph - N/A   Overcast
12:35 AM 33.8 °F 24.8 °F 15.8 °F 48% 29.97 in 10.0 mi NNW 12.7 mph 17.3 mph N/A   Overcast
12:55 AM 33.8 °F 27.0 °F 14.0 °F 44% 29.96 in 10.0 mi North 8.1 mph - N/A   Overcast
1:15 AM 32.0 °F 22.5 °F 15.8 °F 51% 29.95 in 10.0 mi NNW 12.7 mph 18.4 mph N/A   Overcast
1:35 AM 32.0 °F 23.6 °F 14.0 °F 48% 29.95 in 10.0 mi NNW 10.4 mph 17.3 mph N/A   Overcast
1:55 AM 32.0 °F 22.5 °F 14.0 °F 48% 29.95 in 10.0 mi NNW 12.7 mph 18.4 mph N/A   Overcast
2:15 AM 32.0 °F 23.0 °F 14.0 °F 48% 29.95 in 10.0 mi NNW 11.5 mph 18.4 mph N/A   Overcast
2:35 AM 30.2 °F 20.8 °F 14.0 °F 51% 29.95 in 10.0 mi NNW 11.5 mph 18.4 mph N/A   Overcast
2:55 AM 30.2 °F 20.2 °F 14.0 °F 51% 29.96 in 8.0 mi NNW 12.7 mph 19.6 mph N/A   Overcast
3:15 AM 28.4 °F 19.1 °F 17.6 °F 64% 29.95 in 7.0 mi North 10.4 mph 17.3 mph N/A   Overcast
3:35 AM 28.4 °F 18.5 °F 15.8 °F 59% 29.95 in 4.0 mi NNW 11.5 mph 17.3 mph N/A   Overcast
3:55 AM 26.6 °F 17.5 °F 17.6 °F 69% 29.96 in 3.0 mi NNW 9.2 mph - N/A   Overcast
4:15 AM 26.6 °F 16.2 °F 17.6 °F 69% 29.97 in 2.5 mi North 11.5 mph 18.4 mph N/A   Overcast
4:35 AM 26.6 °F 14.7 °F 17.6 °F 69% 29.98 in 3.0 mi NNW 15.0 mph 19.6 mph N/A   Overcast
4:55 AM 24.8 °F 14.6 °F 17.6 °F 74% 29.99 in 2.5 mi NNW 10.4 mph 16.1 mph N/A   Overcast
5:15 AM 24.8 °F 13.4 °F 17.6 °F 74% 30.00 in 2.0 mi North 12.7 mph 17.3 mph N/A   Overcast
5:35 AM 23.0 °F 11.7 °F 17.6 °F 80% 30.01 in 2.0 mi North 11.5 mph 17.3 mph N/A   Overcast
5:55 AM 23.0 °F 12.4 °F 15.8 °F 74% 30.02 in 3.0 mi North 10.4 mph - N/A   Overcast
6:15 AM 23.0 °F 13.1 °F 12.2 °F 63% 30.02 in 3.0 mi NNW 9.2 mph - N/A   Overcast
6:35 AM 21.2 °F 9.5 °F 12.2 °F 68% 30.03 in 2.0 mi North 11.5 mph 18.4 mph N/A   Overcast
6:55 AM 21.2 °F 8.9 °F 12.2 °F 68% 30.03 in 1.8 mi NNW 12.7 mph 21.9 mph N/A   Overcast
7:15 AM 19.4 °F 6.0 °F 14.0 °F 80% 30.05 in 1.2 mi North 13.8 mph 23.0 mph N/A   Overcast
7:35 AM 19.4 °F 6.0 °F 12.2 °F 74% 30.06 in 1.0 mi NNW 13.8 mph 24.2 mph N/A   Overcast
7:55 AM 19.4 °F 5.0 °F 12.2 °F 74% 30.07 in 1.0 mi NNW 16.1 mph 20.7 mph N/A   Overcast
8:15 AM 19.4 °F 7.2 °F 12.2 °F 74% 30.07 in 1.0 mi North 11.5 mph 24.2 mph N/A   Overcast
8:35 AM 19.4 °F 7.2 °F 12.2 °F 74% 30.07 in 1.8 mi North 11.5 mph 20.7 mph N/A   Overcast
8:55 AM 21.2 °F 8.9 °F 8.6 °F 58% 30.07 in 10.0 mi North 12.7 mph 17.3 mph N/A   Scattered Clouds
9:15 AM 21.2 °F 8.3 °F 8.6 °F 58% 30.08 in 10.0 mi North 13.8 mph 20.7 mph N/A   Scattered Clouds
9:35 AM 21.2 °F 8.9 °F 8.6 °F 58% 30.08 in 10.0 mi North 12.7 mph 20.7 mph N/A   Mostly Cloudy
9:55 AM 21.2 °F 10.1 °F 6.8 °F 54% 30.08 in 10.0 mi North 10.4 mph 16.1 mph N/A   Mostly Cloudy
10:15 AM 21.2 °F 10.1 °F 6.8 °F 54% 30.09 in 10.0 mi NNE 10.4 mph - N/A   Mostly Cloudy
10:35 AM 21.2 °F 11.7 °F 6.8 °F 54% 30.10 in 10.0 mi NNE 8.1 mph - N/A   Overcast
10:55 AM 21.2 °F 10.9 °F 6.8 °F 54% 30.09 in 10.0 mi North 9.2 mph - N/A   Overcast
11:15 AM 23.0 °F 11.7 °F 6.8 °F 50% 30.09 in 10.0 mi North 11.5 mph - N/A   Scattered Clouds
11:35 AM 21.2 °F 10.1 °F 5.0 °F 50% 30.10 in 10.0 mi North 10.4 mph - N/A   Scattered Clouds
11:55 AM 23.0 °F 13.1 °F 5.0 °F 46% 30.09 in 10.0 mi North 9.2 mph - N/A   Partly Cloudy
12:15 PM 23.0 °F 12.4 °F 5.0 °F 46% 30.10 in 10.0 mi North 10.4 mph - N/A   Clear
12:35 PM 23.0 °F 12.4 °F 3.2 °F 43% 30.09 in 10.0 mi North 10.4 mph - N/A   Partly Cloudy
12:55 PM 23.0 °F 13.1 °F 3.2 °F 43% 30.08 in 10.0 mi North 9.2 mph - N/A   Scattered Clouds
1:15 PM 23.0 °F 13.9 °F 3.2 °F 43% 30.10 in 10.0 mi North 8.1 mph - N/A   Mostly Cloudy
1:35 PM 23.0 °F 13.1 °F 3.2 °F 43% 30.09 in 10.0 mi North 9.2 mph - N/A   Overcast
1:55 PM 23.0 °F 13.9 °F 3.2 °F 43% 30.10 in 10.0 mi North 8.1 mph - N/A   Mostly Cloudy
2:15 PM 23.0 °F 13.9 °F 3.2 °F 43% 30.08 in 10.0 mi NNE 8.1 mph - N/A   Partly Cloudy
2:35 PM 23.0 °F 12.4 °F 3.2 °F 43% 30.09 in 10.0 mi North 10.4 mph - N/A   Clear
2:55 PM 23.0 °F 14.7 °F 3.2 °F 43% 30.10 in 10.0 mi North 6.9 mph - N/A   Clear
3:15 PM 23.0 °F 15.8 °F 3.2 °F 43% 30.12 in 10.0 mi North 5.8 mph - N/A   Clear
3:35 PM 23.0 °F 15.8 °F 3.2 °F 43% 30.12 in 10.0 mi North 5.8 mph - N/A   Scattered Clouds
3:55 PM 23.0 °F 14.7 °F 3.2 °F 43% 30.12 in 10.0 mi North 6.9 mph - N/A   Partly Cloudy
4:15 PM 23.0 °F 13.9 °F 3.2 °F 43% 30.14 in 10.0 mi NNW 8.1 mph - N/A   Scattered Clouds
4:35 PM 23.0 °F 14.7 °F 3.2 °F 43% 30.14 in 10.0 mi NNW 6.9 mph - N/A   Partly Cloudy
4:55 PM 23.0 °F 15.8 °F 3.2 °F 43% 30.14 in 10.0 mi North 5.8 mph - N/A   Clear
5:15 PM 23.0 °F 14.7 °F 3.2 °F 43% 30.16 in 10.0 mi NNW 6.9 mph - N/A   Clear
5:35 PM 23.0 °F 17.0 °F 3.2 °F 43% 30.16 in 10.0 mi North 4.6 mph - N/A   Clear
5:55 PM 23.0 °F 13.9 °F 1.4 °F 39% 30.17 in 10.0 mi North 8.1 mph - N/A   Clear
6:15 PM 23.0 °F 13.1 °F 1.4 °F 39% 30.18 in 10.0 mi North 9.2 mph - N/A   Clear
6:35 PM 23.0 °F 12.4 °F 1.4 °F 39% 30.20 in 10.0 mi North 10.4 mph - N/A   Clear
6:55 PM 23.0 °F 13.9 °F 1.4 °F 39% 30.21 in 10.0 mi North 8.1 mph - N/A   Clear
7:15 PM 23.0 °F 13.9 °F 1.4 °F 39% 30.21 in 10.0 mi NNW 8.1 mph 18.4 mph N/A   Clear
7:35 PM 21.2 °F 10.9 °F 1.4 °F 42% 30.22 in 10.0 mi NNW 9.2 mph - N/A   Clear
7:55 PM 21.2 °F 10.9 °F -0.4 °F 39% 30.22 in 10.0 mi North 9.2 mph 16.1 mph N/A   Clear
8:15 PM 21.2 °F 9.5 °F -0.4 °F 39% 30.23 in 10.0 mi North 11.5 mph 16.1 mph N/A   Clear
8:35 PM 21.2 °F 10.1 °F -0.4 °F 39% 30.24 in 10.0 mi North 10.4 mph - N/A   Clear
8:55 PM 21.2 °F 10.1 °F -0.4 °F 39% 30.25 in 10.0 mi North 10.4 mph 17.3 mph N/A   Clear
9:15 PM 21.2 °F 10.1 °F -0.4 °F 39% 30.25 in 10.0 mi North 10.4 mph 16.1 mph N/A   Clear
9:35 PM 19.4 °F 9.5 °F -0.4 °F 42% 30.25 in 10.0 mi North 8.1 mph 16.1 mph N/A   Clear
9:55 PM 21.2 °F 7.8 °F 1.4 °F 42% 30.25 in 10.0 mi North 15.0 mph 19.6 mph N/A   Clear
10:15 PM 21.2 °F 8.3 °F -2.2 °F 36% 30.26 in 10.0 mi North 13.8 mph 18.4 mph N/A   Clear
10:35 PM 19.4 °F 7.2 °F -0.4 °F 42% 30.26 in 10.0 mi North 11.5 mph 18.4 mph N/A   Clear
10:55 PM 19.4 °F 7.2 °F -0.4 °F 42% 30.27 in 10.0 mi North 11.5 mph 19.6 mph N/A   Clear
11:15 PM 19.4 °F 5.5 °F -0.4 °F 42% 30.27 in 10.0 mi North 15.0 mph 18.4 mph N/A   Clear
11:35 PM 19.4 °F 6.6 °F -0.4 °F 42% 30.27 in 10.0 mi NNE 12.7 mph 19.6 mph N/A   Clear
11:55 PM 19.4 °F 7.9 °F -0.4 °F 42% 30.27 in 10.0 mi NNE 10.4 mph 16.1 mph N/A   Clear